AirNav   ATP
 
 1259 users online  

86F Carnegie Municipal Airport
Carnegie, Oklahoma, USA

GOING TO CARNEGIE?


FAA INFORMATION EFFECTIVE 06 DECEMBER 2018

Location

FAA Identifier: 86F
Lat/Long: 35-07-25.4000N / 098-34-30.9000W
35-07.423333N / 098-34.515000W
35.1237222 / -98.5752500
(estimated)
Elevation: 1354 ft. / 413 m (estimated)
Variation: 07E (1985)
From city: 2 miles NE of CARNEGIE, OK
Time zone: UTC -6 (UTC -5 during Daylight Saving Time)
Zip code: 73015

Airport Operations

Airport use: Open to the public
Activation date: 12/1972
Control tower: no
ARTCC: FORT WORTH CENTER
FSS: MC ALESTER FLIGHT SERVICE STATION
NOTAMs facility: MLC (NOTAM-D service available)
Attendance: UNATNDD
Wind indicator: yes
Segmented circle: no
Lights: ACTVT MIRL RY 17/35 - CTAF.

Airport Communications

CTAF: 122.9

Nearby radio navigation aids

VOR radial/distance  VOR name  Freq  Var
HBRr047/28.5HOBART VORTAC111.8010E
BFVr097/31.7BURNS FLAT VORTAC110.0005E
LAWr339/38.5LAWTON VOR/DME109.4009E

 
NDB name  Hdg/Dist  Freq  Var  ID
TRAIL329/22.238809EOFZ --- ..-. --..
POST337/32.042508EPFL .--. ..-. .-..

Airport Services

Parking: tiedowns
Airframe service: NONE
Powerplant service: NONE
Bottled oxygen: NONE
Bulk oxygen: NONE

Runway Information

Runway 17/35

Dimensions: 3000 x 60 ft. / 914 x 18 m
Surface: asphalt/concrete, in fair condition
Weight bearing capacity: 
Single wheel: 11.0
Runway edge lights: medium intensity
Gradient: S.
RUNWAY 17  RUNWAY 35
Latitude: 35-07.670003N35-07.175358N
Longitude: 098-34.512895W098-34.516102W
Elevation: 1342.0 ft.1354.0 ft.
Gradient: 0.4% UP0.4%
Traffic pattern: leftleft
Runway heading: 173 magnetic, 180 true353 magnetic, 000 true
Markings: basic, in fair conditionbasic, in fair condition
Obstructions: none9 ft. tree, 365 ft. from runway, 50 ft. left of centerline, 18:1 slope to clear
RWY 35 HAS 13 FT TREE 165 FT FROM RWY END AND 65 FT R.

Airport Ownership and Management from official FAA records

Ownership: Publicly-owned
Owner: CITY OF CARNEGIE
PO BOX 1075, 11 E MAIN
CARNEGIE, OK 73015
Phone 580-654-1004
Manager: ROBERT PETTIT
30150 COUNTY STREET 2475
CARNEGIE, OK 73015
Phone (580) 574-3140

Airport Operational Statistics

Aircraft based on the field: 10
Single engine airplanes: 9
Helicopters: 1
    
Aircraft operations: avg 42/month *
60% transient general aviation
40% local general aviation
* for 12-month period ending 12 May 2017

Instrument Procedures

There are no published instrument procedures at 86F.

Some nearby airports with instrument procedures:

KHBR - Hobart Regional Airport (25 nm W)
2O8 - Hinton Municipal Airport (26 nm NE)
KOJA - Thomas P Stafford Airport (26 nm N)
KFSI - Henry Post Army Airfield (Fort Sill) (30 nm S)
KCHK - Chickasha Municipal Airport (30 nm E)
 
Loc | Ops | Rwys | IFR | FBO | Links
Com | Nav | Svcs | Stats | Notes


 
Area around 86F (Carnegie Municipal Airport)
 
Road maps at: MapQuest Bing Google
 
Aerial photo
WARNING: Photo may not be current or correct
Aerial photo of 86F (Carnegie Municipal Airport)
Photo taken 12-Nov-2005
looking North just before sunset

Do you have a better or more recent aerial photo of Carnegie Municipal Airport that you would like to share? If so, please send us your photo.

 
Sectional chart

 
Airport distance calculator
Flying to Carnegie Municipal Airport? Find the distance to fly.

From to 86F

Sunrise and sunset
Times for 14-Dec-2018
 Local
(UTC-6)
 Zulu
(UTC)
Morning civil twilight07:0713:07
Sunrise07:3613:36
Sunset17:2223:22
Evening civil twilight17:5123:51

Current date and time
Zulu (UTC)  14-Dec-2018 18:22:58
Local (UTC-6)  14-Dec-2018 12:22:58
 
METAR
KHBR 
25nm W 
141753Z AUTO 01024G31KT 10SM CLR 11/M07 A3019 RMK AO2 PK WND 01034/1733 SLP225 T01061072 10106 20022 50010
KOJA 
26nm N 
141755Z AUTO 35018G26KT 10SM CLR 08/M05 A3019 RMK AO2
KCHK 
30nm E 
141755Z AUTO 36025G29KT 10SM BKN017 BKN022 07/02 A3011 RMK AO2 T00680019 10069 20024
KCLK 
30nm NW 
141755Z AUTO 10SM CLR 08/M14 A3021 RMK AO2 PNO
KFSI 
31nm S 
141756Z AUTO 36020G30KT 10SM FEW022 09/03 A3012 RMK AO2 PK WND 36031/17 SLP202 60000 T00900032 10090 20030 51013
KCSM 
33nm NW 
141753Z 36030G37KT 10SM CLR 09/M14 A3020 RMK AO2 PK WND 35038/1725 SLP231 T00891144 10089 20006 50006
KRQO 
35nm NE 
141755Z AUTO 34026G31KT 10SM SCT017 SCT040 07/M01 A3016 RMK AO2 T00711006 10073 20010
KLAW 
35nm S 
141753Z 36021G33KT 10SM SCT022 09/03 A3014 RMK AO2 PK WND 35033/1747 SLP209 60002 T00940028 10094 20033 51012
KRCE 
43nm NE 
141755Z AUTO 35018KT 10SM BKN018 BKN041 06/M00 A3015 RMK AO2
KLTS 
44nm SW 
141756Z AUTO 35021G29KT 10SM CLR 11/M11 A3018 RMK AO2 PK WND 35033/47 SLP222 T01061108 10106 20039 50005 $
TAF
KFSI 
31nm S 
141640Z 1416/1520 35019G29KT 9999 SCT060 540006 QNH2999INS TEMPO 1416/1418 35015G35KT BECMG 1419/1420 35012G22KT 9999 SKC 510002 QNH3009INS BECMG 1504/1505 35009KT 9999 SKC QNH3013INS TX10/1421Z TN01/1511Z
NOTAMs
Click for the latest NOTAMs
NOTAMs are issued by the DoD/FAA and will open in a separate window not controlled by AirNav.

 

 
 

Would you like to see your business listed on this page?

 If your business provides an interesting product or service to pilots, flight crews, aircraft, or users of the Carnegie Municipal Airport, you should consider listing it here.  To start the listing process, click on the button below
 
Add a business
 

Other Pages about Carnegie Municipal Airport

Update a link
 
Copyright © AirNav, LLC. All rights reserved. Privacy Policy  Contact